TimeCST,TemperatureF,Dew PointF,Humidity,Sea Level PressureIn,VisibilityMPH,Wind Direction,Wind SpeedMPH,Gust SpeedMPH,PrecipitationIn,Events,Conditions,WindDirDegrees,DateUTC
12:53 AM,45.0,39.9,82,30.18,8.0,Calm,Calm,-,N/A,,Clear,0,2014-01-19 06:53:00
1:53 AM,45.0,39.0,80,30.18,6.0,West,5.8,-,N/A,,Haze,270,2014-01-19 07:53:00
2:53 AM,43.0,37.9,82,30.19,6.0,WNW,3.5,-,N/A,,Haze,300,2014-01-19 08:53:00
3:53 AM,44.1,39.0,82,30.20,7.0,NNW,3.5,-,N/A,,Clear,330,2014-01-19 09:53:00
4:53 AM,45.0,39.9,82,30.22,9.0,North,6.9,-,N/A,,Clear,10,2014-01-19 10:53:00
5:53 AM,44.1,39.0,82,30.24,10.0,Calm,Calm,-,N/A,,Clear,0,2014-01-19 11:53:00
6:53 AM,41.0,36.0,82,30.26,10.0,Calm,Calm,-,N/A,,Clear,0,2014-01-19 12:53:00
7:53 AM,43.0,36.0,76,30.29,10.0,NNW,3.5,-,N/A,,Clear,330,2014-01-19 13:53:00
8:53 AM,54.0,34.0,47,30.31,10.0,NNE,9.2,-,N/A,,Clear,30,2014-01-19 14:53:00
9:53 AM,59.0,27.0,29,30.33,10.0,ENE,9.2,-,N/A,,Clear,60,2014-01-19 15:53:00
10:53 AM,63.0,26.1,25,30.32,10.0,ENE,9.2,-,N/A,,Clear,60,2014-01-19 16:53:00
11:53 AM,66.0,27.0,23,30.30,10.0,ENE,6.9,-,N/A,,Clear,70,2014-01-19 17:53:00
12:53 PM,68.0,26.1,21,30.24,10.0,ENE,4.6,-,N/A,,Clear,70,2014-01-19 18:53:00
1:53 PM,71.1,23.0,16,30.20,10.0,Calm,Calm,-,N/A,,Clear,0,2014-01-19 19:53:00
2:53 PM,72.0,21.9,15,30.18,9.0,Calm,Calm,-,N/A,,Clear,0,2014-01-19 20:53:00
3:53 PM,73.0,21.9,15,30.16,10.0,SSE,5.8,-,N/A,,Clear,160,2014-01-19 21:53:00
4:53 PM,73.0,24.1,16,30.15,10.0,SSE,3.5,-,N/A,,Clear,160,2014-01-19 22:53:00
5:53 PM,69.1,25.0,19,30.15,10.0,South,4.6,-,N/A,,Clear,180,2014-01-19 23:53:00
6:53 PM,59.0,28.0,31,30.16,10.0,South,3.5,-,N/A,,Clear,170,2014-01-20 00:53:00
7:53 PM,55.0,28.9,37,30.15,10.0,Calm,Calm,-,N/A,,Clear,0,2014-01-20 01:53:00
8:53 PM,51.1,28.9,43,30.14,10.0,Calm,Calm,-,N/A,,Clear,0,2014-01-20 02:53:00
9:53 PM,50.0,30.9,48,30.13,8.0,Calm,Calm,-,N/A,,Clear,0,2014-01-20 03:53:00
10:53 PM,45.0,30.0,56,30.13,8.0,Calm,Calm,-,N/A,,Clear,0,2014-01-20 04:53:00
11:53 PM,48.0,30.9,52,30.12,10.0,Calm,Calm,-,N/A,,Clear,0,2014-01-20 05:53:00